User: anonymous   Login
Location: Ash Swamp
(41.5170°N, 74.6157°W)
Time: 22:32:05
(UTC+00:00)
Language:

NOSS 3-2 (A) - Orbit

View from above orbital plane
View from above orbital plane
View from above satellite
View from above satellite

Ground track
Ground track

The orbit data is extracted from the following two-line orbital elements,

1 28095U 03054A   20266.76580327 0.00000000  00000-0  00000-0 0    03
2 28095  63.4055 142.0666 0412983 359.3792   0.6208 13.41391235    07
Epoch (UTC): 22 September 2020 18:22:45
Eccentricity: 0.0412983
inclination: 63.4055°
perigee height: 795 km
apogee height: 1413 km
right ascension of ascending node: 142.0666°
argument of perigee: 359.3792°
revolutions per day: 13.41391235
mean anomaly at epoch: 0.6208°
orbit number at epoch: 0

The dashed part of the orbit path shows where the satellite is in the earth's shadow,  

DLR